Погода в Бескарагае

Казахстан     50°53′09″N   79°28′51″E
темп.,
°C
ветер,
м/с
пор.,
м/с
влажн.,
%
обл.,
%
осадки,
мм/ч
давл.,
гПа
погр.,
м
2 марта, вт
вт200:000зюз5998100 1.2 1015410
03:00−4з5128699 0.5 1016380
06:00−9з479199 0.5 1018127
09:00−9з2493100 0.0 1018147
12:00−6зюз2488100 0.0 1018290
15:00−4з1287100 0.0 1016296
18:00−5ссз2396100 0.3 1015121
21:00−6ссз3496100 1.4 1016136
3 марта, ср
ср300:00−10сз349697 1.7 101775
03:00−10зюз239692 0.1 101872
06:00−10зюз4109696 0.4 1020397
09:00−11з61093100 0.3 1022442
12:00−11зюз6888100 0.3 1023592
15:00−10зюз5787100 0.1 1024650
18:00−11ююз3590100 0.1 1024111
21:00−13ю47916 0.0 1026102
4 марта, чт
чт400:00−14ю47908 0.0 1026112
03:00−13ю598695 0.0 1025155
06:00−14ю588479 0.0 1026132
09:00−11ююв6108282 0.0 1025227
12:00−7ю7108491 0.0 1024301
15:00−4ю7118488 0.0 1022454
18:00−5ю7128394 0.0 1022300
21:00−7ю7137784 0.0 1020296
5 марта, пт
пт500:00−9ююв6118263 0.0 1020193
03:00−8ююв6118490 0.0 1017262
06:00−6ююв599695 0.3 1016313
09:00−5ююз5796100 1.1 1017300
12:00−1з81188100 1.6 1020807
15:00−3з8128274 0.0 1024821
18:00−6юз5108440 0.0 1028288
21:00−9ююз510853 0.0 1029161
6 марта, сб
сб600:00−9ю6128112 0.0 1029220
03:00−10ю61180100 0.0 1027201
06:00−11ю6107995 0.0 1027171
09:00−9ю6107754 0.0 1026252
12:00−5ююз7107727 0.0 1024403
15:00−2ююз610770 0.0 1023512
18:00−5ююз47840 0.0 1023113
21:00−8ююз44830 0.0 102452